Other Public Products
Issued by NWS Grand Forks, ND

Home | Current Version | Previous Version | Graphics & Text | Print | Product List | Glossary On
Versions: 1 2 3 4 5 6 7 8 9 10 11 12 13 14 15 16 17 18 19 20 21 22 23 24 25 26 27 28 29 30 31 32 33 34 35 36 37 38 39 40 41 42 43 44 45 46 47 48 49 50
000
FPUS83 KFGF 041210
OPUFGF
PRAIRIE TO PINES WEATHER ROUNDUP
NATIONAL WEATHER SERVICE EASTERN NORTH DAKOTA/GRAND FORKS ND
600 AM CST WED MAR 04 2015

 **SATELLITE DATA USED TO AUGMENT SKY COVER AT AUTOMATED STATIONS**
 *****  WEATHER ACROSS EASTERN NORTH DAKOTA  *****

CITY           SKY/WX    TMP DP  RH WIND       PRES   REMARKS
GRAND FORKS    PTCLDY    -9 -15  75 NW7       30.15R WCI -24
6HR MIN TEMP:  -9; 6HR MAX TEMP:  -1;

GRAND FORKS AF CLEAR     -8 -16  69 NW10      30.14R WCI -27
GRAND CITY NWS   N/A     -9 N/A N/A NW7         N/A  WCI -24
BUXTON         NOT AVBL
DEVILS LAKE    CLEAR    -11 -20  64 N7        30.11R WCI -26
6HR MIN TEMP: -11; 6HR MAX TEMP:  -2;

FARGO          CLEAR     -5 -12  72 W10       30.15R WCI -23
6HR MIN TEMP:  -5; 6HR MAX TEMP:   1;

WAHPETON ARPT  FAIR      -2  -9  71 W9        30.16R WCI -18
$$

 *****  WEATHER ACROSS CENTRAL AND WESTERN NORTH DAKOTA  *****

CITY           SKY/WX    TMP DP  RH WIND       PRES   REMARKS
JAMESTOWN      CLEAR     -5 -11  75 W10       30.11R WCI -23
6HR MIN TEMP:  -6; 6HR MAX TEMP:   1; 6HR PCP: TRACE;

BISMARCK       CLEAR     -2 -10  69 NW15G25   30.20R WCI -22
6HR MIN TEMP:  -2; 6HR MAX TEMP:   5; 6HR PCP: TRACE;

MINOT          FAIR     -10 -19  64 W18       30.17R WCI -34
6HR MIN TEMP: -10; 6HR MAX TEMP:   1; 6HR PCP: TRACE;

MINOT AFB      CLEAR    -12 -19  70 NW17      30.17R WCI -36
6HR MIN TEMP: -12; 6HR MAX TEMP:  -1;

GARRISON         N/A     -9 -16  71 NW14      30.17R WCI -30
6HR MIN TEMP:  -9; 6HR MAX TEMP:   2;

WILLISTON      PTCLDY    -8 -15  71 NW13      30.23R WCI -28
6HR MIN TEMP: -10; 6HR MAX TEMP:  -2;

DICKINSON      CLEAR     -5 -13  68 NW13      30.11R WCI -24
6HR MIN TEMP:  -5; 6HR MAX TEMP:   5;

HETTINGER      CLEAR     -5 -11  75 NW13      30.13R WCI -24
6HR MIN TEMP:  -6; 6HR MAX TEMP:   8; 6HR PCP: TRACE;

$$

 *****  OTHER OBSERVATIONS NORTHEAST NORTH DAKOTA  *****

CITY           SKY/WX    TMP DP  RH WIND       PRES   REMARKS
WALHALLA         N/A     -9 -18  64 NW12G17   30.14R WCI -29
LANGDON        NOT AVBL
CAVALIER       FAIR      -9 -17  70 NW10      30.15R WCI -28
GRAFTON        NOT AVBL
CANDO          FAIR     -17 -22  76 NW8       30.13R WCI -34
FORT TOTTEN    NOT AVBL
ROLLA          FAIR     -13 -18  77 NW18G24   30.09R WCI -38
RUGBY          FAIR     -13 -20  70 NW16      30.14R WCI -37
 ***** THE ABOVE OBSERVATIONS ARE NON NWS ARE NOT QUALITY
        CONTROLLED AND MAY MIS-REPORT RAIN FOR SNOW...
$$

 *****  OTHER OBSERVATIONS SOUTHEAST NORTH DAKOTA *****

CITY           SKY/WX    TMP DP  RH WIND       PRES   REMARKS
COOPERSTOWN    NOT AVBL
VALLEY CITY    FAIR      -4  -9  77 NW9       30.11R WCI -20
OAKES            N/A      1  -2  85 NW14      30.13R WCI -17
GWINNER        PTSUNNY    1  -6  71 NW12      30.15R WCI -15
SHEYENNE NWR     N/A     -5 -13  67 W6        29.95S WCI -18
BUFFALO        NOT AVBL
WYNDMERE       NOT AVBL
 ***** THE ABOVE OBSERVATIONS ARE NON NWS ARE NOT QUALITY
       CONTROLLED AND MAY MIS-REPORT RAIN FOR SNOW...
$$

  *****  WEATHER ACROSS NORTHERN MINNESOTA  *****

CITY           SKY/WX    TMP DP  RH WIND       PRES   REMARKS
FLAG ISLAND    PTCLDY   -15 -20  76 W8        29.99R WCI -32
WARROAD        CLEAR    -15 -20  76 W6        30.03R WCI -29
ROSEAU         CLEAR    -11 -18  70 NW8       30.05R WCI -28
HALLOCK        NOT AVBL
THF RVR FALLS  CLEAR     -9 -15  77 NW8       30.07R WCI -26
6HR MIN TEMP:  -9; 6HR MAX TEMP:  -2;

HALSTAD        NOT AVBL
FOSSTON        CLEAR    -11 -17  77 W9        30.06R WCI -29
BAUDETTE       CLEAR    -13 -19  75 W9        29.99R WCI -31
6HR MIN TEMP: -15; 6HR MAX TEMP:  -5;

WASKISH        PTCLDY    -9 -15  77 W5        30.01R WCI -21
CROOKSTON      FAIR      -8 -13  77 NW12      30.13R WCI -27
$$
  *****  WEATHER ACROSS CENTRAL AND WEST MINNESOTA  *****

CITY           SKY/WX    TMP DP  RH WIND       PRES   REMARKS
BEMIDJI        CLEAR     -9 -14  79 W9        30.00R WCI -27
PARK RAPIDS    CLEAR    -12 -17  78 W9        30.01R WCI -30
6HR MIN TEMP: -12; 6HR MAX TEMP:  -2;

WADENA         CLEAR     -9 -15  77 W7        30.05R WCI -24
DETROIT LAKES  CLEAR     -4  -9  77 NW12      30.07R WCI -22
MOORHEAD       CLEAR     -2  -8  78 W7        30.15R WCI -16
FERGUS FALLS   PTCLDY    -8 -15  71 W7        30.17R WCI -22
ELBOW LAKE     FAIR      -6 -11  78 W8        30.12R WCI -21
6HR MIN TEMP:  -7; 6HR MAX TEMP:  -1;

MORRIS MN      MOCLDY    -6 -11  77 W10       30.13R WCI -23
STAPLES        CLEAR     -9 -15  77 W9        30.05R WCI -27
WHEATON        PTCLDY    -8 -13  77 W6        30.18R WCI -21
$$
  *****  WEATHER ELSEWHERE ACROSS MINNESOTA  *****

CITY           SKY/WX    TMP DP  RH WIND       PRES   REMARKS
DULUTH         PTCLDY    -7 -13  75 W10       29.94R WCI -25
6HR MIN TEMP:  -7; 6HR MAX TEMP:   1; 6HR PCP: TRACE;

INTRNTL FALLS  CLEAR    -15 -20  78 W7        29.97R WCI -31
6HR MIN TEMP: -15; 6HR MAX TEMP:  -4; 6HR PCP:  0.01;

ELY            CLEAR    -11 -17  77 W5        29.91R WCI -23
CLOQUET        CLEAR     -8 -15  71 W7        29.98R WCI -22
BRAINERD       CLEAR     -8 -13  78 W8        30.05R WCI -24
6HR MIN TEMP:  -9; 6HR MAX TEMP:   0;

HIBBING        CLEAR    -12 -17  78 W6        29.96R WCI -26
6HR MIN TEMP: -13; 6HR MAX TEMP:  -2;

ALEXANDRIA     CLEAR     -7 -12  79 W10       30.09R WCI -25
6HR MIN TEMP:  -7; 6HR MAX TEMP:  -1;

SAINT CLOUD    CLEAR     -3 -10  72 W10       30.10R WCI -20
6HR MIN TEMP:  -4; 6HR MAX TEMP:   2;

MINNEAPOLIS    FAIR       0  -9  65 W9        30.15R WCI -15
6HR MIN TEMP:   0; 6HR MAX TEMP:   6;

$$

  *****  WEATHER ACROSS SOUTH DAKOTA  *****

CITY           SKY/WX    TMP DP  RH WIND       PRES   REMARKS
SIOUX FALLS    PTCLDY     1  -4  79 CALM      30.16R
6HR MIN TEMP:   0; 6HR MAX TEMP:   6;

BROOKINGS      NOT AVBL
WATERTOWN      CLOUDY    -6 -11  79 W6        30.10R WCI -19
6HR MIN TEMP:  -9; 6HR MAX TEMP:   1;

HURON          MOCLDY    -1  -6  79 SW6       30.16R WCI -13
6HR MIN TEMP:  -9; 6HR MAX TEMP:  -1;

SISSETON         N/A      1  -6  72 NW14      30.14  WCI -17
ABERDEEN       LGT SNOW   2  -3  80 SW5       30.15S WCI  -8
6HR MIN TEMP: -10; 6HR MAX TEMP:   3; 6HR PCP: TRACE;

MITCHELL       CLEAR      2  -4  76 W7        30.19R WCI -11
PIERRE         CLEAR      7  -1  70 NW15      30.18R WCI -10
6HR MIN TEMP:   2; 6HR MAX TEMP:   8;

MOBRIDGE       CLEAR      3  -8  60 NW21G30   30.14R WCI -18
RAPID CITY     CLEAR      2  -5  72 N10       30.10R WCI -14
6HR MIN TEMP:  -3; 6HR MAX TEMP:   5;

$$

  *****  SOME WEATHER IN NEARBY STATES *****

CITY           SKY/WX    TMP DP  RH WIND       PRES   REMARKS
GLASGOW MT     CLEAR     -3 -10  72 W7        30.23R WCI -16
6HR MIN TEMP:  -4; 6HR MAX TEMP:   2;

GREAT FALLS MT CLEAR      4  -2  76 SW13      30.14F WCI -13
6HR MIN TEMP:   4; 6HR MAX TEMP:  12;

CHEYENNE WY    LGT SNOW   3  -2  79 W5        29.99R WCI  -6
6HR MIN TEMP:   1; 6HR MAX TEMP:   7; 6HR PCP:  0.02;

SCOTTSBLUFF NE PTCLDY     8   3  80 NW8       30.13R WCI  -4
6HR MIN TEMP:   7; 6HR MAX TEMP:  14;

OMAHA NE       CLOUDY    15   7  70 N3        30.26R
6HR MIN TEMP:  14; 6HR MAX TEMP:  18; 6HR PCP:  0.01;

DES MOINES IA  PTCLDY    13   0  56 NW9       30.23R WCI   1
6HR MIN TEMP:  13; 6HR MAX TEMP:  16;

DAVENPORT IA   PTCLDY     8  -1  66 NW13      30.12R WCI  -8
6HR MIN TEMP:   7; 6HR MAX TEMP:  19;

CHICAGO IL     PTCLDY    18  12  77 NW14      30.00R WCI   4
6HR MIN TEMP:  18; 6HR MAX TEMP:  31;

EAU CLAIRE WI  CLEAR      0  -9  65 W10       30.08R WCI -16
6HR MIN TEMP:   0; 6HR MAX TEMP:   9;

LA CROSSE WI   CLEAR      6  -3  66 W8        30.12R WCI  -7
6HR MIN TEMP:   6; 6HR MAX TEMP:  14;

$$

  *****  SOME NATIONAL WEATHER *****

CITY           SKY/WX    TMP DP  RH WIND       PRES   REMARKS



USA.gov is the U.S. government's official web portal to all federal, state and local government web resources and services.